Hyannis, MA

5:03 AM EST on February 13, 2016 (GMT -0500)
Barnstable Municipal-Boardman-Polando Field

Weather History for KHYA - January, 2013

Change the Weather History Date:

Thursday, January 24, 2013

  Actual Average Record
Temperature  
Mean Temperature 12 °F -  
Max Temperature 19 °F 40 °F 64 °F (1967)
Min Temperature 5 °F 21 °F -6 °F (1976)
Degree Days  
Heating Degree Days 53    
Moisture  
Dew Point -7 °F    
Average Humidity 42    
Maximum Humidity 53    
Minimum Humidity 31    
Precipitation  
Precipitation 0.00 in - - ()
Sea Level Pressure  
Sea Level Pressure 30.08 in    
Wind  
Wind Speed 10 mph (WNW)    
Max Wind Speed 16 mph    
Max Gust Speed 28 mph    
Visibility 10 miles    
Events      
Averages and records for this station are not official NWS values.
T = Trace of Precipitation, MM = Missing Value Source: NWS Daily Summary

Daily Weather History Graph

Daily Weather History Graph

Search for Another Location

Airport or City:

Trip Planner

Search our weather history database for the weather conditions in past years. The results will help you decide how hot, cold, wet, or windy it might be!

Date:

Astronomy

Jan. 24, 2013 Rise Set
Actual Time 7:00 AM EST 4:46 PM EST
Civil Twilight 6:30 AM EST 5:16 PM EST
Nautical Twilight 5:56 AM EST 5:50 PM EST
Astronomical Twilight 5:23 AM EST 6:23 PM EST
Moon 2:45 PM EST (1/24) 4:55 AM EST (1/24)
Length of Visible Light 10h 46m
Length of Day
9h 46m
Waxing Gibbous, 94% of the Moon is Illuminated
Jan 24
Waxing Gibbous
Jan 26
Full
Feb 3
Last Quarter
Feb 10
New
Feb 17
First Quarter

Hourly Weather History & Observations

Time (EST) Temp. Windchill Dew Point Humidity Pressure Visibility Wind Dir Wind Speed Gust Speed Precip Events Conditions
12:56 AM 7.0 °F -4.5 °F -9.9 °F 46% 30.09 in 10.0 mi WNW 6.9 mph - N/A   Clear
1:56 AM 7.0 °F -6.6 °F -9.9 °F 46% 30.10 in 10.0 mi West 9.2 mph - N/A   Clear
2:56 AM 6.1 °F -6.8 °F -9.9 °F 48% 30.09 in 10.0 mi WNW 8.1 mph - N/A   Clear
3:56 AM 6.1 °F -7.8 °F -9.0 °F 50% 30.07 in 10.0 mi NW 9.2 mph - N/A   Clear
4:56 AM 6.1 °F -6.8 °F -9.0 °F 50% 30.07 in 10.0 mi WNW 8.1 mph 17.3 mph N/A   Clear
5:56 AM 5.0 °F -9.1 °F -9.9 °F 50% 30.08 in 10.0 mi WNW 9.2 mph - N/A   Clear
6:56 AM 5.0 °F -10.0 °F -9.0 °F 52% 30.09 in 10.0 mi WNW 10.4 mph - N/A   Clear
7:56 AM 6.1 °F -8.7 °F -9.0 °F 50% 30.09 in 10.0 mi WNW 10.4 mph 16.1 mph N/A   Clear
8:56 AM 9.0 °F -5.1 °F -5.1 °F 53% 30.09 in 10.0 mi NNW 10.4 mph 23.0 mph N/A   Clear
10:56 AM 14.0 °F -2.0 °F -2.0 °F 49% 30.06 in 10.0 mi NW 16.1 mph 23.0 mph N/A   Clear
11:56 AM 17.1 °F 3.0 °F -2.0 °F 43% 30.03 in 10.0 mi NNW 13.8 mph 24.2 mph N/A   Clear
12:56 PM 18.0 °F 5.4 °F -2.0 °F 41% 30.02 in 10.0 mi NNW 11.5 mph 26.5 mph N/A   Clear
1:56 PM 19.0 °F 6.1 °F -4.0 °F 36% 30.01 in 10.0 mi NW 12.7 mph 27.6 mph N/A   Clear
2:56 PM 19.9 °F 6.2 °F -5.1 °F 33% 30.02 in 10.0 mi NW 15.0 mph 27.6 mph N/A   Clear
3:56 PM 19.0 °F 8.2 °F -6.0 °F 33% 30.04 in 10.0 mi WNW 9.2 mph 20.7 mph N/A   Clear
4:56 PM 18.0 °F 3.6 °F -7.1 °F 33% 30.06 in 10.0 mi WNW 15.0 mph 23.0 mph N/A   Clear
5:56 PM 18.0 °F 4.8 °F -8.0 °F 31% 30.10 in 10.0 mi WNW 12.7 mph 19.6 mph N/A   Clear
6:56 PM 17.1 °F 3.6 °F -7.1 °F 34% 30.11 in 10.0 mi WNW 12.7 mph 21.9 mph N/A   Clear
7:56 PM 17.1 °F 5.8 °F -7.1 °F 34% 30.12 in 10.0 mi WNW 9.2 mph 19.6 mph N/A   Clear
8:56 PM 16.0 °F 1.1 °F -6.0 °F 38% 30.12 in 10.0 mi WNW 15.0 mph 23.0 mph N/A   Clear
9:56 PM 14.0 °F -0.2 °F -7.1 °F 39% 30.15 in 10.0 mi WNW 12.7 mph 20.7 mph N/A   Clear
10:56 PM 12.9 °F -0.9 °F -7.1 °F 41% 30.16 in 10.0 mi West 11.5 mph - N/A   Clear
11:56 PM 12.9 °F -1.6 °F -8.0 °F 39% 30.18 in 10.0 mi West 12.7 mph 17.3 mph N/A   Clear